Simultaneous Nadir Overpasses (SNOs) Predictions

Prediction of SNOs between AQUA and NOAA-19 Satellite Orbit:

Table of predicted SNOs for the next 14.0 days since TLE Epoch: 2/8/2019
Index Date (AQUA) Time (AQUA) Lat,Lon (AQUA) SZA (AQUA ) Date (NOAA-19) Time (NOAA-19) Lat,Lon (NOAA-19) SZA (NOAA-19 ) Distance(km) Time Diff (sec)
1 02/08/2019 22:58:30 -80.55, -20.42 82.58 02/08/2019 22:59:17 -80.57, -20.34 82.59 2.53 47
2 02/11/2019 03:42:48 -80.55, -91.49 83.28 02/11/2019 03:41:47 -80.55, -91.43 83.26 1.23 61
3 02/11/2019 04:32:15 80.57, 76.01 96.74 02/11/2019 04:32:41 80.56, 76.17 96.71 2.92 26
4 02/13/2019 10:05:59 -80.55, 172.72 84.03 02/13/2019 10:06:16 -80.55, 172.62 84.03 1.83 17
5 02/15/2019 15:39:43 80.55, -90.65 95.21 02/15/2019 15:39:39 80.55, -90.67 95.21 0.53 4
6 02/17/2019 21:13:28 -80.56, 5.77 85.55 02/17/2019 21:13:14 -80.54, 5.81 85.56 2.24 14
7 02/17/2019 22:02:54 80.55, 173.48 94.43 02/17/2019 22:04:07 80.57, 173.67 94.39 3.75 73
8 02/20/2019 02:47:11 80.54, 102.61 93.62 02/20/2019 02:46:37 80.54, 102.47 93.65 2.47 34
9 02/20/2019 03:36:38 -80.54, -89.77 86.40 02/20/2019 03:37:42 -80.56, -89.88 86.40 3.07 64
10 02/22/2019 08:20:56 -80.55,-160.95 87.17 02/22/2019 08:20:11 -80.54,-160.77 87.18 3.36 45




NCC Satellite Simultaneous Nadir Overpasses (SNOs) Prediction Service
